Flag for Russia Weather past 2 weeks in Samara, Russia

Now
39 °F

Mostly cloudy.


Feels Like: 34 °F
Forecast: 49 / 67 °F
Wind: 8 mph from Southeast

Location: Samara

Current Time: Apr 27, 2015 at 8:30:15 AM

Latest Report: Apr 27, 2015 at 7:30 AM


Visibility: N/A

Pressure: 29.92 "Hg

Humidity: 87%

Dew point: 36 °F

Location of SamaraLocation

Historic Weather in Samara — Graph

°F

Samara temperature yesterday

Maximum temperature yesterday: 50 °F (at 2:00 PM)
Minimum temperature yesterday: 36 °F (at 12:30 AM)
Average temperature yesterday: 43 °F

Past Weeks' High & Low Weather Summary

 TemperatureHumidityPressure
High63 °F (Apr 15, 2:00 PM)100% (Apr 16, 12:30 AM)30.24 "Hg (Apr 16, 12:30 AM)
Low30 °F (Apr 13, 3:30 AM)22% (Apr 15, 3:30 PM)28.97 "Hg (Apr 20, 12:30 PM)
Average44 °F63%29.70 "Hg
* Reported Apr 12 7:00 AM — Apr 27 7:00 AM, Samara, Weather by CustomWeather, © 2015

Note: Actual official high and low records may vary slightly from our data, if they occured in-between our weather recording intervals... More about our weather records

Advertising

Samara weather history for previous 24 hours

 ConditionsComfort  
Time TempWeatherWind HumidityBarometerVisibility
7:00 AM
Mon, Apr 27
37 °FOvercast.8 mph87%29.92 "HgN/A
6:30 AM37 °FFog.8 mph87%29.92 "Hg3 mi
6:00 AM37 °FFog.8 mph87%29.92 "Hg2 mi
5:30 AM37 °FMostly cloudy.8 mph87%29.92 "HgN/A
5:00 AM37 °FSprinkles. Fog.8 mph87%29.92 "Hg2 mi
4:30 AM37 °FSprinkles. Fog.6 mph81%29.95 "Hg3 mi
4:00 AM39 °FSprinkles. Fog.3 mph81%29.95 "Hg3 mi
3:30 AM39 °FSprinkles. Fog.1 mph75%29.95 "Hg3 mi
3:00 AM39 °FLight rain. Fog.3 mph75%29.98 "Hg3 mi
2:30 AM41 °FLight rain. Mostly cloudy.3 mph70%29.98 "Hg3 mi
2:00 AM43 °FLight rain. Mostly cloudy.6 mph61%29.95 "HgN/A
1:30 AM41 °FLight rain. Mostly cloudy.6 mph66%29.95 "HgN/A
1:00 AM43 °FLight rain. Mostly cloudy.10 mph49%29.95 "HgN/A
12:30 AM41 °FMostly cloudy.1 mph57%29.95 "HgN/A
12:00 AM41 °FClear.3 mph53%29.95 "Hg10 mi
11:30 PM
Sun, Apr 26
41 °FClear.1 mph45%29.92 "Hg10 mi
11:00 PM39 °FClear.1 mph48%29.92 "Hg10 mi
10:30 PM37 °FClear.1 mph52%29.92 "Hg10 mi
10:00 PM41 °FClear.3 mph45%29.92 "Hg10 mi
9:30 PM43 °FClear.3 mph42%29.92 "Hg10 mi
9:00 PM43 °FClear.1 mph42%29.92 "Hg10 mi
8:30 PM45 °FPartly sunny.3 mph39%29.92 "HgN/A
8:00 PM46 °FPartly sunny.6 mph37%29.89 "HgN/A
7:30 PM46 °FScattered clouds.8 mph34%29.89 "HgN/A
7:00 PM48 °FScattered clouds.10 mph32%29.89 "HgN/A
6:30 PM50 °FPartly sunny.15 mph28%29.89 "HgN/A
6:00 PM50 °FBroken clouds.17 mph30%29.86 "HgN/A
5:30 PM50 °FBroken clouds.20 mph30%29.86 "HgN/A
5:00 PM50 °FBroken clouds.17 mph28%29.86 "HgN/A
4:30 PM50 °FBroken clouds.22 mph28%29.86 "HgN/A
4:00 PM50 °FBroken clouds.22 mph30%29.86 "HgN/A
3:30 PM48 °FBroken clouds.22 mph29%29.86 "HgN/A
3:00 PM48 °FBroken clouds.17 mph37%29.86 "HgN/A
2:30 PM48 °FBroken clouds.20 mph37%29.86 "HgN/A
2:00 PM50 °FBroken clouds.13 mph37%29.86 "HgN/A
1:30 PM46 °FBroken clouds.20 mph40%29.86 "HgN/A
1:00 PM46 °FBroken clouds.20 mph34%29.86 "HgN/A
12:30 PM46 °FBroken clouds.20 mph40%29.86 "HgN/A
12:00 PM46 °FBroken clouds.17 mph43%29.86 "HgN/A
11:30 AM46 °FBroken clouds.20 mph43%29.86 "HgN/A
11:00 AM45 °FBroken clouds.17 mph49%29.86 "HgN/A
10:30 AM45 °FBroken clouds.17 mph49%29.86 "HgN/A
10:00 AM43 °FBroken clouds.17 mph57%29.83 "HgN/A
9:30 AM43 °FBroken clouds.15 mph57%29.83 "HgN/A
9:00 AM41 °FBroken clouds.15 mph66%29.83 "HgN/A
8:30 AM39 °FBroken clouds.15 mph70%29.83 "HgN/A
8:00 AM37 °FMostly cloudy.13 mph75%29.83 "HgN/A
Weather by CustomWeather, © 2015

See weather overviewHow to use our weather pages